User: anonymous   Login
Location: Mascot Post Office (historical)
(40.2645°N, 99.5462°W)
Time: 21:43:58
(UTC+00:00)
Language:

BREEZE-M DEB (TANK) - Orbit

View from above orbital plane
View from above orbital plane
View from above satellite
View from above satellite

Ground track
Ground track

The orbit data is extracted from the following two-line orbital elements,

1 33374U 08044B   20272.06525896  .00001334  00000-0  36541-3 0  9993
2 33374  49.3821 161.4040 5439211  85.0827 331.9252  4.87906694212474
Epoch (UTC): 28 September 2020 01:33:58
Eccentricity: 0.5439211
inclination: 49.3821°
perigee height: 319 km
apogee height: 16292 km
right ascension of ascending node: 161.4040°
argument of perigee: 85.0827°
revolutions per day: 4.87906694
mean anomaly at epoch: 331.9252°
orbit number at epoch: 21247

The dashed part of the orbit path shows where the satellite is in the earth's shadow,  

DLR